Tracking 30306 objects as of 25-Apr-2025
HD Live streaming from Space Station
objects crossing your sky now

THORAD DELTA 1 DEB

Track THORAD DELTA 1 DEB now!
10-day predictions


NORAD ID: 10990
Int'l Code: 1974-089EK
Perigee: 1,351.2 km
Apogee: 1,467.2 km
Inclination: 101.0 °
Period: 113.8 minutes
Semi major axis: 7780 km
RCS: 0.0954 m2 (small)
Launch date: November 15, 1974
Source: United States (US)
Launch site: AIR FORCE WESTERN TEST RANGE (AFWTR)

Note: This is SATELLITE DEBRIS
Your satellite tracking list
Your tracking list is empty




NASA's NSSDC Master Catalog

Two Line Element Set (TLE):
1 10990U 74089EK  25113.88054956 -.00000006  00000-0  19021-3 0  9997
2 10990 101.0433 124.5395 0074595 172.4060 307.4931 12.65077618328599
Source of the keplerian elements: AFSPC